QPF
0.00 0.00 0.02 0.03 0.02 0.02 0.02 0.02 0.01 0.01 0.01 0.01 0.01 0.01 0.00 0.00 0.00 0.01 0.01 0.01 0.01 0.01 0.01 0.01 0.01 0.01 0.01 0.01 0.01 0.01 0.00 0.00 0.00 0.00 0.01 0.01 0.01 0.01 0.01 0.00 0.00 0.00 0.01
0.00 0.00 0.02 0.02 0.02 0.02 0.02 0.02 0.01 0.01 0.01 0.01 0.01 0.01 0.00 0.00 0.01 0.01 0.01 0.01 0.01 0.01 0.01 0.01 0.01 0.01 0.01 0.01 0.01 0.01 0.00 0.00 0.00 0.00 0.00 0.01 0.01 0.01 0.01 0.01 0.01 0.01 0.01
0.00 0.00 0.02 0.02 0.02 0.02 0.02 0.02 0.01 0.01 0.01 0.01 0.01 0.01 0.00 0.01 0.01 0.01 0.01 0.01 0.01 0.01 0.01 0.01 0.01 0.00 0.00 0.00 0.01 0.00 0.00 0.00 0.00 0.00 0.00 0.00 0.01 0.02 0.01 0.02 0.02 0.02 0.02
0.00 0.00 0.01 0.02 0.02 0.02 0.02 0.02 0.01 0.01 0.01 0.01 0.01 0.01 0.01 0.01 0.01 0.01 0.01 0.01 0.01 0.01 0.00 0.00 0.00 0.00 0.00 0.00 0.00 0.00 0.00 0.00 0.00 0.00 0.00 0.00 0.01 0.02 0.02 0.02 0.02 0.02 0.02
0.00 0.00 0.01 0.02 0.02 0.02 0.02 0.02 0.02 0.01 0.01 0.01 0.01 0.01 0.01 0.01 0.01 0.01 0.01 0.01 0.01 0.01 0.00 0.00 0.00 0.00 0.00 0.00 0.00 0.00 0.00 0.00 0.00 0.00 0.00 0.00 0.00 0.02 0.02 0.02 0.02 0.02 0.02
0.00 0.00 0.01 0.02 0.03 0.03 0.02 0.02 0.02 0.01 0.01 0.01 0.01 0.01 0.01 0.01 0.01 0.01 0.01 0.01 0.01 0.00 0.00 0.00 0.00 0.00 0.00 0.00 0.00 0.00 0.00 0.00 0.00 0.00 0.00 0.00 0.00 0.01 0.02 0.02 0.02 0.02 0.01
0.00 0.00 0.01 0.02 0.03 0.03 0.02 0.02 0.02 0.01 0.01 0.01 0.01 0.01 0.01 0.01 0.01 0.01 0.01 0.01 0.00 0.00 0.00 0.00 0.00 0.00 0.00 0.00 0.00 0.00 0.00 0.00 0.00 0.00 0.00 0.00 0.01 0.02 0.02 0.02 0.01 0.01 0.01
0.00 0.00 0.01 0.03 0.03 0.03 0.02 0.02 0.02 0.01 0.01 0.01 0.01 0.01 0.01 0.01 0.01 0.01 0.01 0.00 0.00 0.00 0.00 0.00 0.00 0.00 0.00 0.00 0.00 0.00 0.00 0.00 0.00 0.00 0.00 0.00 0.02 0.02 0.02 0.01 0.01 0.01 0.01
0.00 0.01 0.01 0.03 0.03 0.03 0.03 0.02 0.02 0.01 0.01 0.01 0.01 0.01 0.01 0.01 0.01 0.01 0.01 0.00 0.00 0.00 0.00 0.00 0.00 0.00 0.00 0.00 0.00 0.00 0.00 0.00 0.00 0.00 0.00 0.01 0.01 0.01 0.01 0.01 0.01 0.02 0.01
0.01 0.01 0.01 0.02 0.02 0.03 0.02 0.02 0.02 0.01 0.01 0.01 0.01 0.01 0.01 0.01 0.01 0.01 0.00 0.00 0.01 0.01 0.00 0.00 0.00 0.00 0.00 0.00 0.00 0.00 0.00 0.00 0.00 0.00 0.00 0.00 0.01 0.01 0.00 0.01 0.01 0.01 0.01
0.01 0.01 0.02 0.02 0.02 0.02 0.02 0.02 0.02 0.02 0.01 0.01 0.01 0.01 0.01 0.00 0.00 0.00 0.00 0.01 0.01 0.00 0.00 0.00 0.00 0.00 0.00 0.00 0.00 0.00 0.00 0.00 0.00 0.00 0.00 0.00 0.00 0.01 0.01 0.01 0.01 0.00 0.00
0.01 0.01 0.02 0.02 0.02 0.02 0.02 0.02 0.02 0.02 0.02 0.01 0.01 0.01 0.00 0.00 0.00 0.00 0.00 0.01 0.01 0.00 0.00 0.00 0.00 0.00 0.00 0.00 0.00 0.00 0.00 0.00 0.00 0.00 0.00 0.00 0.01 0.01 0.01 0.01 0.00 0.00 0.00
0.01 0.02 0.02 0.01 0.01 0.02 0.01 0.02 0.01 0.01 0.02 0.01 0.01 0.00 0.00 0.00 0.00 0.00 0.00 0.00 0.00 0.00 0.00 0.00 0.00 0.00 0.00 0.00 0.00 0.00 0.00 0.00 0.00 0.00 0.00 0.00 0.01 0.01 0.01 0.00 0.00 0.00 0.00
0.02 0.03 0.03 0.02 0.02 0.02 0.01 0.01 0.01 0.01 0.01 0.01 0.00 0.00 0.00 0.00 0.00 0.00 0.00 0.00 0.00 0.00 0.00 0.00 0.00 0.00 0.00 0.00 0.00 0.00 0.00 0.00 0.00 0.00 0.00 0.00 0.00 0.00 0.00 0.00 0.00 0.00 0.00
0.02 0.03 0.03 0.03 0.02 0.02 0.02 0.01 0.01 0.01 0.01 0.00 0.00 0.00 0.00 0.00 0.00 0.00 0.00 0.00 0.00 0.00 0.00 0.00 0.00 0.00 0.00 0.00 0.00 0.00 0.00 0.00 0.00 0.00 0.00 0.00 0.00 0.00 0.00 0.00 0.00 0.00 0.00
0.02 0.02 0.03 0.03 0.02 0.02 0.02 0.01 0.01 0.01 0.01 0.00 0.00 0.00 0.00 0.00 0.00 0.00 0.00 0.00 0.00 0.00 0.00 0.00 0.00 0.00 0.00 0.00 0.00 0.00 0.00 0.00 0.00 0.00 0.00 0.00 0.00 0.00 0.00 0.00 0.00 0.00 0.00
0.03 0.02 0.03 0.03 0.03 0.03 0.02 0.02 0.01 0.01 0.01 0.00 0.00 0.00 0.00 0.00 0.00 0.00 0.00 0.00 0.00 0.00 0.00 0.00 0.00 0.00 0.00 0.00 0.00 0.00 0.00 0.00 0.00 0.00 0.00 0.00 0.00 0.00 0.00 0.00 0.00 0.00 0.00
0.05 0.05 0.04 0.04 0.04 0.04 0.03 0.02 0.02 0.01 0.01 0.00 0.00 0.00 0.00 0.00 0.00 0.00 0.00 0.00 0.00 0.00 0.00 0.00 0.00 0.00 0.00 0.00 0.00 0.00 0.00 0.00 0.00 0.00 0.00 0.00 0.00 0.00 0.00 0.00 0.00 0.00 0.00
0.06 0.06 0.06 0.06 0.05 0.04 0.04 0.04 0.02 0.01 0.01 0.01 0.00 0.00 0.00 0.00 0.00 0.00 0.00 0.00 0.00 0.00 0.00 0.00 0.00 0.00 0.00 0.00 0.00 0.00 0.00 0.00 0.00 0.00 0.00 0.00 0.00 0.00 0.00 0.00 0.00 0.00 0.00
0.06 0.07 0.07 0.07 0.07 0.06 0.05 0.05 0.04 0.03 0.02 0.01 0.00 0.00 0.00 0.00 0.00 0.00 0.00 0.00 0.00 0.00 0.00 0.00 0.00 0.00 0.00 0.00 0.00 0.00 0.00 0.00 0.00 0.00 0.00 0.00 0.00 0.00 0.00 0.00 0.00 0.00 0.00
0.05 0.06 0.07 0.07 0.07 0.07 0.06 0.05 0.04 0.03 0.02 0.01 0.00 0.00 0.00 0.00 0.00 0.00 0.00 0.00 0.00 0.00 0.00 0.00 0.00 0.00 0.00 0.00 0.00 0.00 0.00 0.00 0.00 0.00 0.00 0.00 0.00 0.00 0.00 0.00 0.00 0.00 0.00
0.05 0.05 0.05 0.06 0.07 0.07 0.06 0.05 0.03 0.02 0.02 0.01 0.00 0.00 0.00 0.00 0.00 0.00 0.00 0.00 0.00 0.00 0.00 0.00 0.00 0.00 0.00 0.00 0.00 0.00 0.00 0.00 0.00 0.00 0.00 0.00 0.00 0.00 0.00 0.00 0.00 0.00 0.00
0.04 0.04 0.04 0.04 0.06 0.06 0.06 0.07 0.05 0.05 0.04 0.02 0.01 0.00 0.00 0.00 0.00 0.00 0.00 0.00 0.00 0.00 0.00 0.00 0.00 0.00 0.00 0.00 0.00 0.00 0.00 0.00 0.00 0.00 0.00 0.00 0.00 0.00 0.00 0.00 0.00 0.00 0.00
0.03 0.03 0.03 0.05 0.06 0.06 0.07 0.07 0.06 0.04 0.04 0.03 0.01 0.00 0.00 0.00 0.00 0.00 0.00 0.00 0.00 0.00 0.00 0.00 0.00 0.00 0.00 0.00 0.00 0.00 0.00 0.00 0.00 0.00 0.00 0.00 0.00 0.00 0.00 0.00 0.00 0.00 0.00
0.03 0.03 0.03 0.04 0.06 0.07 0.07 0.06 0.06 0.05 0.03 0.02 0.02 0.01 0.01 0.00 0.00 0.00 0.00 0.00 0.00 0.00 0.00 0.00 0.00 0.00 0.00 0.00 0.00 0.00 0.00 0.00 0.00 0.00 0.00 0.00 0.00 0.00 0.00 0.00 0.00 0.00 0.00
0.02 0.03 0.04 0.04 0.05 0.07 0.08 0.07 0.05 0.05 0.04 0.03 0.02 0.01 0.01 0.00 0.00 0.00 0.00 0.00 0.00 0.00 0.00 0.00 0.00 0.00 0.00 0.00 0.00 0.00 0.00 0.00 0.00 0.00 0.00 0.00 0.00 0.00 0.00 0.00 0.00 0.00 0.00
MSLP
1006.69 1006.48 1006.59 1006.99 1007.58 1008.26 1008.93 1009.50 1009.94 1010.25 1010.47 1010.67 1010.90 1011.21 1011.61 1012.07 1012.56 1013.03 1013.41 1013.70 1013.91 1014.05 1014.17 1014.30 1014.48 1014.71 1014.98 1015.26 1015.53 1015.75 1015.93 1016.06 1016.16 1016.23 1016.31 1016.39 1016.46 1016.52 1016.55 1016.54 1016.48 1016.38 1016.27
1006.33 1006.18 1006.33 1006.75 1007.37 1008.08 1008.79 1009.41 1009.91 1010.29 1010.58 1010.84 1011.12 1011.47 1011.88 1012.36 1012.85 1013.31 1013.70 1013.99 1014.21 1014.36 1014.49 1014.63 1014.81 1015.03 1015.29 1015.55 1015.80 1016.02 1016.20 1016.34 1016.44 1016.52 1016.60 1016.66 1016.71 1016.74 1016.73 1016.68 1016.59 1016.49 1016.38
1005.93 1005.85 1006.04 1006.50 1007.15 1007.90 1008.66 1009.35 1009.93 1010.40 1010.77 1011.09 1011.42 1011.79 1012.20 1012.66 1013.12 1013.55 1013.92 1014.22 1014.44 1014.62 1014.77 1014.93 1015.12 1015.35 1015.60 1015.86 1016.10 1016.31 1016.49 1016.63 1016.74 1016.82 1016.89 1016.93 1016.95 1016.94 1016.89 1016.81 1016.71 1016.60 1016.50
1005.57 1005.56 1005.81 1006.30 1006.98 1007.77 1008.58 1009.34 1009.99 1010.54 1010.99 1011.38 1011.74 1012.12 1012.52 1012.94 1013.36 1013.75 1014.10 1014.38 1014.62 1014.82 1015.01 1015.21 1015.43 1015.67 1015.93 1016.18 1016.42 1016.63 1016.81 1016.95 1017.05 1017.13 1017.18 1017.20 1017.19 1017.15 1017.07 1016.96 1016.85 1016.75 1016.68
1005.33 1005.39 1005.68 1006.21 1006.91 1007.72 1008.56 1009.36 1010.08 1010.69 1011.21 1011.64 1012.04 1012.42 1012.79 1013.18 1013.55 1013.90 1014.22 1014.51 1014.76 1015.00 1015.23 1015.48 1015.74 1016.01 1016.28 1016.54 1016.78 1016.98 1017.15 1017.28 1017.38 1017.45 1017.49 1017.49 1017.45 1017.38 1017.28 1017.17 1017.07 1017.00 1016.96
1005.26 1005.38 1005.71 1006.25 1006.95 1007.75 1008.59 1009.41 1010.15 1010.80 1011.36 1011.84 1012.26 1012.64 1013.01 1013.37 1013.71 1014.03 1014.34 1014.63 1014.91 1015.19 1015.47 1015.76 1016.06 1016.36 1016.65 1016.92 1017.15 1017.35 1017.51 1017.63 1017.73 1017.78 1017.80 1017.79 1017.73 1017.65 1017.55 1017.46 1017.38 1017.34 1017.35
1005.40 1005.56 1005.90 1006.43 1007.10 1007.86 1008.66 1009.44 1010.18 1010.84 1011.42 1011.93 1012.38 1012.79 1013.17 1013.52 1013.86 1014.18 1014.49 1014.79 1015.10 1015.41 1015.74 1016.07 1016.41 1016.74 1017.04 1017.31 1017.54 1017.73 1017.87 1017.99 1018.07 1018.11 1018.12 1018.10 1018.05 1017.97 1017.88 1017.81 1017.77 1017.77 1017.82
1005.70 1005.88 1006.22 1006.71 1007.32 1008.01 1008.73 1009.45 1010.15 1010.80 1011.39 1011.93 1012.43 1012.88 1013.30 1013.68 1014.04 1014.37 1014.70 1015.02 1015.35 1015.69 1016.05 1016.41 1016.77 1017.11 1017.42 1017.69 1017.91 1018.09 1018.22 1018.32 1018.39 1018.43 1018.44 1018.42 1018.37 1018.32 1018.26 1018.21 1018.20 1018.24 1018.32
1006.09 1006.29 1006.61 1007.05 1007.58 1008.17 1008.80 1009.44 1010.08 1010.70 1011.30 1011.88 1012.43 1012.94 1013.42 1013.86 1014.26 1014.63 1014.98 1015.32 1015.67 1016.02 1016.39 1016.76 1017.12 1017.47 1017.78 1018.04 1018.25 1018.42 1018.54 1018.63 1018.69 1018.73 1018.74 1018.73 1018.70 1018.67 1018.64 1018.62 1018.64 1018.70 1018.80
1006.48 1006.69 1006.99 1007.39 1007.84 1008.34 1008.87 1009.42 1009.99 1010.59 1011.19 1011.81 1012.42 1013.01 1013.57 1014.08 1014.54 1014.95 1015.33 1015.68 1016.02 1016.37 1016.73 1017.09 1017.45 1017.79 1018.09 1018.35 1018.55 1018.71 1018.83 1018.91 1018.96 1018.99 1019.01 1019.01 1019.01 1019.00 1018.99 1019.01 1019.05 1019.12 1019.21
1006.80 1007.02 1007.32 1007.67 1008.07 1008.49 1008.94 1009.41 1009.94 1010.50 1011.12 1011.78 1012.45 1013.12 1013.75 1014.34 1014.86 1015.31 1015.70 1016.05 1016.39 1016.72 1017.05 1017.40 1017.74 1018.07 1018.36 1018.61 1018.81 1018.97 1019.08 1019.15 1019.20 1019.23 1019.26 1019.27 1019.28 1019.29 1019.31 1019.34 1019.39 1019.46 1019.54
1006.98 1007.22 1007.53 1007.88 1008.24 1008.62 1009.01 1009.45 1009.93 1010.49 1011.12 1011.81 1012.53 1013.27 1013.97 1014.61 1015.17 1015.65 1016.05 1016.40 1016.71 1017.02 1017.34 1017.66 1017.98 1018.30 1018.59 1018.84 1019.05 1019.20 1019.31 1019.38 1019.43 1019.45 1019.48 1019.50 1019.52 1019.55 1019.58 1019.62 1019.67 1019.72 1019.79
1007.00 1007.27 1007.61 1007.98 1008.35 1008.71 1009.10 1009.51 1009.99 1010.55 1011.18 1011.90 1012.66 1013.43 1014.17 1014.85 1015.44 1015.93 1016.34 1016.68 1016.98 1017.27 1017.56 1017.87 1018.19 1018.51 1018.80 1019.06 1019.28 1019.43 1019.54 1019.61 1019.65 1019.67 1019.68 1019.70 1019.73 1019.77 1019.81 1019.86 1019.91 1019.95 1019.99
1006.87 1007.18 1007.56 1007.96 1008.37 1008.77 1009.17 1009.61 1010.10 1010.66 1011.31 1012.03 1012.80 1013.58 1014.34 1015.03 1015.63 1016.13 1016.54 1016.87 1017.17 1017.46 1017.75 1018.05 1018.38 1018.71 1019.02 1019.29 1019.52 1019.69 1019.79 1019.86 1019.88 1019.89 1019.90 1019.91 1019.94 1019.99 1020.04 1020.09 1020.14 1020.18 1020.21
1006.61 1006.95 1007.37 1007.82 1008.29 1008.75 1009.21 1009.70 1010.22 1010.80 1011.45 1012.16 1012.92 1013.69 1014.43 1015.11 1015.70 1016.21 1016.62 1016.97 1017.28 1017.59 1017.89 1018.22 1018.56 1018.91 1019.25 1019.54 1019.79 1019.96 1020.07 1020.13 1020.14 1020.13 1020.13 1020.13 1020.16 1020.21 1020.27 1020.34 1020.40 1020.44 1020.46
1006.27 1006.61 1007.05 1007.56 1008.10 1008.64 1009.18 1009.73 1010.30 1010.91 1011.56 1012.26 1012.98 1013.71 1014.42 1015.07 1015.66 1016.17 1016.61 1016.99 1017.34 1017.68 1018.02 1018.39 1018.76 1019.14 1019.50 1019.81 1020.07 1020.26 1020.37 1020.42 1020.42 1020.40 1020.38 1020.38 1020.40 1020.45 1020.52 1020.60 1020.67 1020.72 1020.75
1005.85 1006.17 1006.63 1007.17 1007.78 1008.40 1009.04 1009.67 1010.30 1010.95 1011.60 1012.28 1012.96 1013.64 1014.31 1014.93 1015.51 1016.04 1016.51 1016.94 1017.35 1017.74 1018.14 1018.55 1018.96 1019.36 1019.75 1020.08 1020.35 1020.55 1020.66 1020.71 1020.71 1020.68 1020.65 1020.64 1020.66 1020.71 1020.78 1020.87 1020.96 1021.02 1021.05
1005.39 1005.66 1006.10 1006.67 1007.32 1008.03 1008.76 1009.48 1010.19 1010.87 1011.54 1012.20 1012.84 1013.48 1014.10 1014.71 1015.29 1015.83 1016.35 1016.85 1017.32 1017.78 1018.23 1018.69 1019.13 1019.56 1019.96 1020.31 1020.59 1020.79 1020.92 1020.98 1020.98 1020.95 1020.92 1020.90 1020.91 1020.95 1021.03 1021.12 1021.21 1021.28 1021.32
1004.87 1005.07 1005.47 1006.04 1006.73 1007.51 1008.33 1009.14 1009.93 1010.67 1011.36 1012.01 1012.63 1013.23 1013.82 1014.41 1015.00 1015.58 1016.15 1016.71 1017.25 1017.77 1018.28 1018.77 1019.25 1019.69 1020.09 1020.45 1020.74 1020.96 1021.11 1021.19 1021.21 1021.19 1021.16 1021.13 1021.13 1021.16 1021.22 1021.30 1021.39 1021.45 1021.49
1004.32 1004.43 1004.76 1005.31 1006.02 1006.85 1007.75 1008.65 1009.52 1010.33 1011.06 1011.72 1012.33 1012.91 1013.47 1014.05 1014.65 1015.27 1015.89 1016.51 1017.11 1017.70 1018.25 1018.77 1019.25 1019.70 1020.11 1020.47 1020.78 1021.03 1021.21 1021.32 1021.37 1021.37 1021.35 1021.32 1021.31 1021.31 1021.34 1021.39 1021.45 1021.49 1021.52
1003.74 1003.75 1004.00 1004.50 1005.20 1006.07 1007.02 1008.01 1008.96 1009.84 1010.62 1011.30 1011.92 1012.49 1013.05 1013.63 1014.24 1014.89 1015.55 1016.23 1016.88 1017.51 1018.09 1018.63 1019.12 1019.57 1019.98 1020.35 1020.68 1020.96 1021.19 1021.35 1021.45 1021.49 1021.49 1021.46 1021.42 1021.38 1021.37 1021.37 1021.38 1021.39 1021.39
1003.16 1003.05 1003.21 1003.63 1004.31 1005.18 1006.18 1007.23 1008.25 1009.20 1010.04 1010.77 1011.40 1011.98 1012.55 1013.13 1013.76 1014.43 1015.13 1015.84 1016.53 1017.19 1017.79 1018.34 1018.83 1019.27 1019.69 1020.08 1020.44 1020.77 1021.06 1021.29 1021.45 1021.53 1021.55 1021.52 1021.46 1021.38 1021.31 1021.24 1021.20 1021.16 1021.13
1002.60 1002.38 1002.42 1002.75 1003.37 1004.21 1005.23 1006.32 1007.41 1008.42 1009.32 1010.10 1010.76 1011.37 1011.94 1012.54 1013.17 1013.86 1014.58 1015.31 1016.03 1016.71 1017.33 1017.88 1018.38 1018.83 1019.26 1019.68 1020.08 1020.47 1020.83 1021.13 1021.36 1021.50 1021.55 1021.52 1021.43 1021.31 1021.17 1021.04 1020.93 1020.84 1020.77
1002.10 1001.76 1001.67 1001.88 1002.41 1003.20 1004.19 1005.30 1006.43 1007.50 1008.46 1009.28 1010.00 1010.63 1011.22 1011.83 1012.47 1013.17 1013.91 1014.66 1015.39 1016.08 1016.72 1017.28 1017.79 1018.27 1018.72 1019.18 1019.63 1020.08 1020.51 1020.88 1021.18 1021.38 1021.46 1021.45 1021.34 1021.18 1020.99 1020.80 1020.63 1020.48 1020.37
1001.68 1001.21 1000.97 1001.05 1001.45 1002.16 1003.10 1004.20 1005.34 1006.45 1007.46 1008.35 1009.10 1009.77 1010.39 1011.02 1011.67 1012.38 1013.12 1013.88 1014.63 1015.35 1016.00 1016.59 1017.12 1017.62 1018.11 1018.61 1019.12 1019.63 1020.12 1020.56 1020.92 1021.17 1021.30 1021.30 1021.19 1021.00 1020.77 1020.53 1020.31 1020.13 1019.99
1001.35 1000.74 1000.35 1000.27 1000.53 1001.12 1001.98 1003.03 1004.17 1005.30 1006.36 1007.29 1008.10 1008.82 1009.47 1010.12 1010.79 1011.51 1012.26 1013.03 1013.80 1014.53 1015.21 1015.83 1016.40 1016.94 1017.47 1018.01 1018.56 1019.12 1019.66 1020.16 1020.57 1020.87 1021.03 1021.05 1020.96 1020.77 1020.52 1020.26 1020.01 1019.80 1019.64
Thickness
5770 5773 5773 5771 5768 5766 5764 5763 5762 5760 5759 5757 5756 5754 5753 5751 5750 5748 5747 5746 5745 5744 5743 5742 5740 5738 5736 5734 5733 5731 5729 5727 5726 5725 5723 5722 5720 5719 5717 5715 5714 5713 5712
5775 5772 5771 5768 5765 5763 5761 5760 5758 5756 5755 5753 5752 5750 5749 5748 5746 5745 5744 5743 5741 5740 5739 5738 5736 5734 5732 5730 5728 5726 5724 5722 5721 5719 5718 5717 5716 5715 5713 5711 5710 5708 5707
5771 5769 5767 5765 5762 5759 5757 5756 5754 5752 5751 5750 5748 5747 5745 5744 5742 5741 5740 5739 5737 5736 5735 5733 5731 5729 5727 5725 5723 5721 5719 5717 5716 5714 5713 5712 5711 5710 5708 5707 5705 5703 5701
5766 5764 5763 5760 5757 5755 5753 5751 5750 5748 5747 5745 5744 5743 5741 5740 5738 5737 5736 5734 5733 5731 5730 5728 5726 5724 5722 5721 5719 5717 5715 5712 5711 5709 5708 5707 5706 5705 5704 5702 5700 5697 5695
5759 5758 5758 5755 5753 5751 5749 5747 5745 5744 5742 5741 5740 5739 5737 5736 5734 5733 5731 5730 5728 5726 5725 5723 5722 5719 5717 5716 5714 5712 5709 5707 5705 5704 5703 5702 5701 5700 5698 5696 5693 5691 5689
5753 5752 5752 5750 5748 5746 5744 5742 5740 5739 5738 5737 5736 5734 5733 5731 5730 5728 5726 5725 5723 5722 5720 5718 5717 5714 5712 5711 5709 5707 5704 5702 5700 5699 5698 5697 5696 5695 5693 5690 5688 5685 5682
5746 5746 5746 5745 5743 5741 5739 5737 5735 5734 5733 5732 5731 5729 5728 5727 5725 5723 5721 5720 5718 5717 5715 5714 5712 5710 5707 5706 5704 5702 5699 5697 5696 5694 5693 5692 5691 5689 5687 5684 5681 5679 5676
5739 5739 5739 5739 5738 5736 5734 5732 5730 5729 5728 5727 5726 5725 5723 5722 5720 5718 5716 5715 5713 5712 5711 5709 5707 5705 5703 5701 5699 5696 5694 5692 5690 5689 5687 5686 5685 5683 5681 5678 5675 5672 5669
5729 5730 5731 5732 5731 5730 5728 5726 5725 5724 5723 5722 5720 5719 5718 5717 5715 5713 5711 5710 5708 5707 5706 5704 5702 5700 5698 5696 5694 5691 5688 5687 5685 5683 5682 5681 5679 5677 5674 5671 5668 5665 5662
5720 5722 5723 5725 5724 5723 5722 5720 5719 5718 5717 5716 5715 5714 5713 5711 5710 5708 5706 5705 5703 5702 5700 5699 5697 5695 5693 5691 5688 5686 5683 5681 5680 5678 5676 5675 5673 5671 5668 5665 5662 5659 5655
5710 5713 5716 5717 5717 5717 5716 5714 5713 5712 5711 5710 5709 5708 5707 5706 5704 5702 5701 5699 5698 5696 5695 5694 5692 5689 5687 5685 5683 5680 5678 5676 5674 5672 5671 5669 5667 5665 5662 5658 5655 5652 5648
5704 5707 5710 5710 5711 5711 5710 5708 5707 5706 5705 5704 5703 5702 5701 5700 5698 5697 5695 5694 5693 5691 5690 5688 5686 5684 5681 5679 5677 5675 5673 5671 5669 5667 5665 5664 5662 5659 5656 5652 5649 5645 5642
5700 5701 5704 5704 5705 5705 5704 5702 5701 5700 5699 5698 5697 5696 5695 5693 5692 5691 5690 5688 5687 5686 5684 5682 5680 5678 5676 5674 5671 5669 5667 5665 5663 5661 5660 5658 5656 5653 5650 5646 5642 5639 5635
5692 5695 5697 5698 5698 5699 5698 5697 5696 5695 5694 5692 5691 5691 5689 5687 5686 5685 5684 5682 5681 5680 5678 5676 5674 5672 5670 5668 5666 5664 5662 5660 5657 5655 5654 5652 5650 5647 5644 5640 5636 5632 5629
5684 5688 5690 5692 5693 5693 5692 5691 5690 5690 5688 5687 5686 5685 5684 5682 5680 5679 5678 5677 5675 5674 5673 5670 5668 5667 5665 5663 5661 5658 5656 5654 5652 5650 5648 5646 5643 5640 5637 5634 5630 5626 5622
5679 5682 5685 5686 5687 5687 5687 5686 5685 5684 5683 5682 5681 5680 5679 5678 5676 5674 5672 5671 5670 5669 5667 5665 5663 5661 5659 5657 5655 5653 5651 5648 5646 5644 5641 5639 5637 5634 5631 5628 5624 5620 5616
5674 5677 5679 5681 5681 5681 5681 5680 5679 5679 5678 5677 5676 5675 5674 5673 5671 5670 5668 5666 5665 5663 5662 5660 5658 5656 5653 5651 5649 5647 5645 5643 5640 5638 5635 5633 5630 5627 5624 5621 5618 5614 5610
5668 5671 5674 5676 5676 5676 5676 5675 5674 5673 5673 5672 5671 5670 5669 5668 5667 5666 5664 5662 5660 5659 5657 5654 5652 5649 5647 5645 5643 5641 5639 5637 5635 5632 5630 5627 5624 5621 5618 5615 5611 5608 5604
5664 5666 5668 5670 5671 5671 5670 5669 5669 5668 5668 5668 5667 5666 5665 5664 5664 5662 5660 5658 5656 5654 5652 5650 5647 5645 5641 5639 5637 5635 5633 5631 5629 5627 5624 5622 5619 5615 5612 5608 5605 5601 5597
5657 5660 5663 5664 5665 5665 5664 5663 5662 5663 5663 5663 5664 5663 5662 5661 5660 5658 5656 5655 5652 5650 5647 5645 5642 5639 5636 5634 5631 5628 5626 5625 5624 5622 5619 5616 5613 5610 5606 5603 5599 5595 5590
5650 5654 5658 5659 5660 5660 5660 5660 5660 5660 5660 5659 5660 5660 5659 5658 5657 5655 5653 5651 5649 5647 5644 5641 5637 5634 5630 5628 5624 5621 5621 5620 5618 5616 5614 5611 5608 5604 5601 5597 5593 5589 5584
5645 5650 5653 5656 5657 5658 5660 5661 5660 5658 5657 5656 5656 5656 5656 5655 5654 5652 5651 5649 5646 5643 5640 5637 5634 5629 5626 5624 5620 5616 5614 5613 5613 5611 5608 5606 5603 5599 5596 5592 5587 5583 5578
5640 5646 5651 5654 5656 5657 5657 5655 5653 5651 5650 5650 5652 5654 5654 5653 5652 5651 5649 5647 5644 5641 5638 5635 5632 5628 5623 5618 5617 5615 5610 5609 5606 5605 5603 5600 5597 5594 5590 5586 5581 5577 5572
5637 5643 5647 5651 5653 5654 5654 5653 5653 5654 5655 5657 5656 5653 5651 5650 5649 5648 5646 5644 5642 5639 5636 5633 5630 5627 5622 5616 5612 5610 5608 5606 5601 5599 5597 5594 5592 5588 5585 5581 5576 5571 5567
5631 5637 5642 5646 5649 5651 5652 5653 5652 5654 5655 5654 5651 5649 5648 5647 5647 5646 5644 5642 5640 5637 5635 5631 5627 5624 5621 5617 5611 5606 5601 5597 5596 5594 5592 5588 5585 5583 5579 5575 5571 5566 5561
5623 5630 5636 5640 5645 5648 5650 5651 5652 5653 5653 5651 5649 5648 5647 5646 5645 5644 5643 5641 5639 5636 5633 5630 5626 5622 5619 5616 5611 5607 5603 5597 5592 5588 5585 5582 5578 5576 5573 5570 5565 5561 5556